Location: Bassanne
(44.5594°N, 0.0893°W)
Time: 20:25:06
(UTC+00:00)

Daily predictions for brighter satellites

Satellite Brightness Start Highest point End
(mag) Time Altitude Azimuth Time Altitude Azimuth Time Altitude Azimuth
Cosmos 1300 Rocket 4.2 18:14:46 10° SSE 18:18:46 35° E 18:22:49 10° NNE
Sich 1 Rocket 3.6 18:18:34 10° S 18:23:01 64° E 18:27:33 10° NNE
Cosmos 1943 4.3 18:18:15 10° NW 18:23:40 49° WSW 18:29:05 10° S
NOSS 2-2 (E) 4.2 18:20:16 10° WSW 18:23:40 46° NW 18:27:31 10° NNE
Cosmos 2298 Rocket 4.2 18:19:53 10° S 18:24:59 50° ESE 18:30:09 10° NNE
CENTAUR R/B 3.5 18:17:32 10° NNW 18:25:14 50° NE 18:33:40 10° ESE
Cosmos 1975 3.9 18:22:19 10° SSW 18:26:18 52° WNW 18:30:17 10° N
Cosmos 1437 4.1 18:24:28 10° NNW 18:27:19 41° W 18:30:10 10° SSW
Iridium 4 Rocket 3.9 18:22:17 10° S 18:27:25 76° W 18:33:03 10° N
CSL-04 Debris 4.3 18:24:39 10° SE 18:29:51 52° ENE 18:35:05 10° N
Helios 1A Rocket 3.5 18:27:33 10° S 18:31:37 62° WSW 18:35:44 10° NNW
CSL-04 Rocket 3.9 18:26:33 10° SE 18:31:49 52° ENE 18:37:10 10° N
ATLAS 2AS CENTAUR R/B 3.8 18:26:23 10° SSE 18:32:54 29° ESE 18:39:26 10° NE
Okean 2 Rocket 3.3 18:28:54 10° S 18:33:15 51° E 18:37:35 10° NNE
NOSS 2-2 (D) 4.2 18:30:08 10° WSW 18:33:32 47° NW 18:37:18 10° NNE
YAOGAN 1 2.5 18:30:03 10° SSE 18:34:22 74° ENE 18:38:42 10° N
Cosmos 1025 Rocket 3.3 18:30:46 10° N 18:35:01 47° ENE 18:39:15 10° SSE
ATLAS 3B R/B 4.0 18:31:33 10° NNW 18:37:03 25° NNE 18:42:35 10° E
Abrixas rocket 2.4 18:37:14 10° WNW 18:40:00 46° NNE 18:42:11 14° E
Cosmos 1513 Rocket 4.5 18:34:34 10° S 18:40:45 67° E 18:46:51 10° NNE
CREW DRAGON DEMO-1 DEB 3.6 18:39:13 10° NW 18:42:05 37° NNE 18:44:16 15° E
Cosmos 1536 Rocket 3.9 18:40:31 10° N 18:44:48 45° ENE 18:49:05 10° SSE
Cosmos 1125 Rocket 3.8 18:40:36 10° S 18:45:38 47° ESE 18:50:44 10° NNE
SJ-6B 4.3 18:48:32 15° E 18:49:52 18° ENE 18:52:29 10° NNE
CZ-4 R/B 2.1 18:47:49 10° S 18:51:58 58° W 18:56:06 10° NNW
Cosmos 2150 Rocket 4.0 18:47:08 10° SSW 18:52:31 80° ESE 18:58:00 10° NNE
SJ-11-01 4.2 18:48:20 10° SSE 18:53:01 69° ENE 18:57:41 10° N
CZ-2C R/B 3.2 18:48:41 10° SSE 18:54:03 87° ENE 18:59:44 10° NNW
Cosmos 1464 Rocket 3.9 18:47:58 10° S 18:54:05 80° E 19:00:18 10° N
USA 238 DEB 3.9 18:47:29 10° NW 18:54:46 85° NE 19:02:18 10° SE
USA 238 3.9 18:47:36 10° NW 18:54:52 85° NE 19:02:25 10° SE
Okean-O 3.7 18:51:35 10° S 18:55:50 48° W 19:00:09 10° NNW
Cosmos 2285 Rocket 4.2 18:50:19 10° S 18:56:19 49° ESE 19:02:24 10° NNE
Cosmos 1674 3.2 18:53:33 10° N 18:57:10 37° ENE 19:00:17 13° SE
Cosmos 1092 Rocket 4.5 18:52:24 10° N 18:58:09 38° ENE 19:03:53 10° SE
MOS 1 Rocket 3.0 18:59:41 10° NNE 19:04:02 63° E 19:08:15 10° S
TSX-5 4.5 19:04:08 10° S 19:07:33 34° ESE 19:11:46 10° NE
ARGOS 3.1 19:04:21 10° SSE 19:09:40 70° ENE 19:15:02 10° N
In-Cosmos 22 4.3 19:06:07 10° NNW 19:11:26 75° W 19:16:50 10° S
Cosmos 1048 Rocket 4.2 19:07:12 10° NNW 19:12:33 78° WSW 19:17:54 10° SSE
CZ-2C R/B 3.1 19:09:04 10° NNE 19:14:19 41° E 19:19:35 10° SSE
Cosmos 1733 3.8 19:13:47 25° SE 19:15:12 33° E 19:18:39 10° NNE
Cosmos 2151 Rocket 3.7 19:11:26 10° SSW 19:15:54 79° W 19:20:25 10° N
HJ-1C 3.9 19:13:25 10° S 19:16:39 59° W 19:19:56 10° NNW
Lacrosse 5 rocket 3.7 19:15:01 10° NNW 19:17:53 17° N 19:20:43 10° NE
NOSS 3-2 (A) 4.4 19:11:39 10° NW 19:19:13 69° WSW 19:27:41 10° SSE
Cosmos 2082 Rocket 3.7 19:16:00 10° N 19:19:49 18° NE 19:21:17 17° ENE
Shenzhou-11 Module 3.3 19:19:40 10° SW 19:20:33 18° SSW 19:20:33 18° SSW
BREEZE-M DEB (TANK) 3.2 19:19:01 10° WNW 19:22:09 67° SSW 19:27:36 20° SE
BREEZE-M R/B 4.2 19:09:36 10° WSW 19:22:20 83° NNW 19:24:25 24° ENE
DMSP B5D2-2 4.4 19:19:09 10° NNE 19:24:09 41° E 19:29:06 10° SSE
Cosmos 494 Rocket 4.0 19:20:03 10° NNW 19:25:21 89° ENE 19:29:53 14° SSE
Meteor 1-15 Rocket 4.2 19:20:54 10° S 19:26:32 83° E 19:32:19 10° NNE
ATLAS 5 CENTAUR R/B 4.5 19:23:22 10° WNW 19:26:54 31° SW 19:36:22 10° SSE
Cosmos 1805 3.1 19:23:10 10° S 19:27:02 67° E 19:30:56 10° NNE
OBJECT-B 2.7 19:28:48 18° NE 19:28:48 18° NE 19:30:10 10° NNE
Milstar 3 Cent rocket 4.0 19:26:16 10° SW 19:30:41 17° S 19:32:39 14° SSE
Ariane Rocket 2.9 19:28:06 20° SSE 19:31:32 66° ENE 19:36:36 10° N
SL-08 RB Rocket 3.6 19:27:52 15° SSE 19:31:35 81° ENE 19:36:09 10° N
H-2A R/B 2.7 19:28:08 10° S 19:33:01 55° W 19:38:04 10° NNW
USA 234 4.3 19:38:13 23° SE 19:38:13 23° SE 19:41:58 10° S
Cosmos 1269 Rocket 4.0 19:31:59 10° NNW 19:37:17 64° ENE 19:39:33 34° SE
Nadezhda 4 Rocket 4.3 19:32:37 10° NNW 19:38:42 68° W 19:44:45 10° S
KORONAS-FOTON 4.0 19:34:49 10° NNW 19:38:44 71° W 19:41:31 18° S
Cosmos 1626 2.4 19:38:52 10° N 19:42:02 48° NE 19:42:02 48° NE
MetOp-A 4.1 19:40:20 29° SSE 19:43:04 67° ENE 19:48:24 10° N
USA 186 1.9 19:42:34 56° SSW 19:43:07 73° W 19:46:25 10° NNW
Cosmos 1844 Rocket 3.7 19:40:11 10° SW 19:45:31 46° WNW 19:50:55 10° NNE
COSMOS 2406 3.4 19:40:50 10° NNW 19:46:25 54° ENE 19:47:55 42° ESE
ISS -1.9 19:44:16 10° WNW 19:47:05 24° N 19:47:46 22° NNE
Cosmos 2278 Rocket 3.0 19:44:19 10° S 19:51:32 31° ENE 19:54:52 10° NE
IRS-1A Rocket 4.4 19:47:47 18° SSE 19:52:21 85° WSW 19:58:13 10° NNW
Lacrosse 4 Rocket 3.0 19:50:24 10° N 19:52:52 21° NNE 19:52:52 21° NNE
Meteor 1-22 Rocket 4.2 19:48:33 10° S 19:54:24 72° E 20:00:28 10° NNE
Meteor 2-5 Rocket 3.8 19:51:17 10° NNW 19:56:59 83° W 20:00:46 23° S
NOSS 3-2 (C) 4.4 19:49:56 10° NW 19:57:29 63° WSW 20:03:38 20° SSE
Exosat Rocket 4.1 19:52:17 10° SW 19:57:36 57° WNW 20:02:33 10° NNE
Meteor 1-24 Rocket 3.6 19:53:42 10° N 19:59:20 81° E 20:01:37 38° SSE
Okean 1 Rocket 3.7 19:55:13 10° SSW 19:59:38 58° WNW 20:04:05 10° N
NOSS 3-4 (A) 3.4 19:54:43 10° SW 20:00:37 84° NW 20:06:57 10° NE
NOSS 3-4 (C) 3.3 19:54:49 10° SW 20:00:43 85° NW 20:07:04 10° NE
Resurs 01 Rocket 2.6 20:03:26 34° NE 20:03:26 34° NE 20:06:30 10° N
SL-14 R/B 3.4 19:58:30 10° N 20:01:55 64° N 20:01:55 64° N
Cosmos 1766 4.2 20:05:04 10° SSW 20:08:52 47° WNW 20:12:42 10° N
Cosmos 1833 Rocket 2.6 20:05:54 10° NNW 20:11:32 63° ENE 20:11:54 61° E
Cosmos 2251 Rocket 4.3 20:09:23 10° N 20:13:44 38° NE 20:13:44 38° NE
CENTAUR R/B 3.8 20:08:19 10° NW 20:16:16 54° WSW 20:22:00 22° S
ARIANE 5 R/B 4.4 20:20:05 21° NNE 20:20:05 21° NNE 20:21:48 10° N
SPOT 3 Rocket 3.4 20:20:50 84° E 20:20:53 84° ENE 20:26:05 10° NNW
Cosmos 1634 Rocket 4.2 20:16:46 10° SSW 20:22:53 67° W 20:29:06 10° N
ATLAS 2AS CENTAUR R/B 3.2 20:15:22 10° SW 20:23:19 75° NW 20:31:14 10° NE
SJ-6B 4.1 20:24:09 34° WSW 20:24:16 34° W 20:27:45 10° NNW
Resurs 1-3 4.0 20:26:18 61° NW 20:26:18 61° NW 20:30:01 10° NNW
ATLAS 3B R/B 2.6 20:21:52 10° NW 20:28:47 79° NE 20:29:50 66° ESE
Cosmos 1892 Rocket 4.2 20:25:14 10° NNW 20:28:35 51° NNW 20:28:35 51° NNW
Cosmos 1655 Rocket 4.0 20:32:00 10° N 20:37:50 67° NE 20:37:50 67° NE
CZ-2C R/B 4.4 20:49:36 10° N 20:54:27 32° WNW 20:59:20 10° SW
Lacrosse 5 rocket 3.6 20:54:07 10° NW 20:56:20 24° NNW 20:56:20 24° NNW
Cosmos 2279 Rocket 4.5 20:57:29 41° SW 20:59:23 57° WNW 21:05:35 10° N
OBJECT-B 4.3 21:02:00 11° NW 21:02:00 11° NW 21:02:09 10° NW
Cosmos 2098 Rocket 4.2 20:56:06 10° N 21:01:45 63° NNW 21:01:45 63° NNW
Cosmos 2082 Rocket 2.9 20:59:01 10° NNW 21:03:08 50° NNW 21:03:08 50° NNW
Terra 4.4 21:21:44 14° N 21:21:44 14° N 21:22:29 10° N
Lacrosse 4 Rocket 4.4 21:28:40 10° NW 21:29:10 13° NW 21:29:10 13° NW
Cosmos 2278 Rocket 3.7 21:33:01 32° WNW 21:33:45 33° NW 21:38:51 10° N
Resurs 01 Rocket 4.4 21:41:00 16° WNW 21:41:00 16° WNW 21:42:20 10° NW
